Location: Home
(42.5358°N, 72.7383°W)
Time: 21:20:10
(UTC-05:00)

Vanguard 2 - Pass Details

Date: 04 December 2021
Orbit: 553 x 2936 km, 32.9° (Epoch: 20 January)

Event Time Altitude Azimuth Distance (km) Brightness Sun altitude
Rises 15:06:54 0° 254° (WSW) 3,152 11.9 9.7°
Reaches altitude 10° 15:09:05 10° 245° (WSW) 2,416 11.9 9.4°
Maximum altitude 15:14:18 37° 179° (S) 1,615 9.8 8.7°
Drops below altitude 10° 15:22:26 10° 116° (ESE) 3,774 10.8 7.5°
Sets 15:26:43 0° 110° (ESE) 5,189 11.5 6.9°
